COSMOS 1275 DEB, 42098

Orbit data source: Space-Track

COSMOS 1275 DEB, 42098 is space debris in LEO originally from a launch on Thu, 04 Jun 1981 UTC launched from the Plesetsk Missile And Space Complex (PKMTR). Debris objects in space refer to the collection of defunct objects orbiting the Earth. Examples of debris include non-operational satellites, rocket bodies, and fragments generated from explosions, collisions, or faulty payload assembly.

Loading next visibility...
Identifier
42098, 1981-053PJ
Orbit
LEO
Country
Flag of CISCIS
Related business
Manufacturer
Unknown
Mission
Spacecraft
Bus & Motor
Unknown
Mass
Unknown
Launch date (UTC)
1981-06-04 (45 years ago)
Launch vehicle
Unknown
Launch site
Plesetsk Missile And Space Complex (PKMTR)
Object type
Payload
Rocket body
Debris
Shape & HBR
Unknown shape, 0.1 m
Radar Cross Section
Medium (>0.1 m² and <1 m²)

Expand to show TLE details & history
Last TLE update: 6 hours ago

TLE from 6 hours ago
0 COSMOS 1275 DEB
1 42098U 81053PJ  26255.30799050  .00000970  00000-0  10322-2 0  9999
2 42098  83.1572 207.4480 0141698  66.0719 295.5202 13.68871397637446
Epoch: 2026-09-12T07:23Z
TLE epoch observation values (Epoch: 2026-09-12T07:23:30.379Z)
Latitude
0.00002°
Longitude
105.25256°
Altitude
962.668 km
Speed
7.392 km/s
True Right ascension
13h 49m 47s
True Declination
0° 00' 00"
Sunlit
Object was in daylight at epoch
Visualization orbit readout
Latitude
Unknown
Longitude
Unknown
Altitude
Unknown
Speed
Unknown
Apparent Right ascension
Unknown
Apparent Declination
Unknown
Sunlit
N/A
Visualization observer readout
Local Sidereal Time
05:39:11
Azimuth
Unknown
Elevation
Unknown
Doppler factor
Unknown
Orbital elements
Apogee altitude
1,105.332 km
Perigee altitude
896.216 km
Semi-major axis
7,378.911 km
Eccentricity
0.01417
Inclination
83.1572°
RAAN
207.448°
Arg. of periapsis
66.0719°
True anomaly
294.04378°
Mean anomaly
295.5202°
Eccentric anomaly
294.7831°
Mean motion
3.42417 °/min
Orbital period
105.14 mins
BSTAR
0.0010322
Loading maneuver chart data...
Computing Atmospheric mass density...
Loading historical data...
Loading historical data...
Loading historical data...
Loading historical data...
Loading historical data...
Loading historical data...
Loading historical data...

Documentation

Showing up to 5 results
|